カタログに戻る

SATCOM 3 DEB *

LostHEO
NORAD 32992·DEBRIS·🇺🇸 United States

打ち上げ Dec 7, 1979 から Cape Canaveral Space Force Station

Loading…

次のパス (今後24時間)

TLE

古いSource: Space-Track

元期: Feb 25, 2025, 14:34 UTC

1 32992U 79101T   25056.60710858 -.00000094  00000-0  00000+0 0  9999
2 32992  13.1437 312.3523 4670485 354.0087 328.2287  1.78290476114244

AllMySatでSATCOM 3 DEB *をリアルタイム追跡

Download on the App Store